Theta_e
317 318 318 317 316 315 315 314 314 314 310 306 305 305 305 304 304 302 301 300 300 303 303 302 304 305 304 305 306 306 311 314 318 317 315 316 318 317 318 320 321 325 324 325 325 326 330 322 325 331 328 325 328 328
314 315 317 317 317 316 316 315 314 314 308 305 304 305 305 305 304 302 301 300 300 300 302 300 300 300 300 301 303 305 310 310 315 315 315 315 317 314 316 323 315 324 318 320 325 326 320 320 320 320 325 325 329 326
311 312 314 315 316 316 316 315 315 313 307 304 303 305 304 305 304 303 301 301 300 300 299 299 305 304 304 301 301 306 309 310 313 309 313 314 316 312 317 317 314 314 310 320 322 321 316 319 317 316 322 324 324 322
309 310 311 312 313 314 314 315 314 309 305 303 304 305 305 305 304 303 302 301 299 298 299 306 303 305 305 304 303 302 308 307 307 308 312 313 314 310 313 312 312 311 311 312 319 316 316 319 314 314 321 321 321 319
308 309 311 311 312 311 310 310 310 306 303 302 304 305 305 305 304 303 302 301 300 299 305 306 304 304 305 305 305 304 304 307 309 312 312 313 312 311 311 310 312 308 310 312 316 312 312 313 312 315 318 321 319 318
307 308 309 309 308 308 307 305 304 303 302 302 303 304 305 305 303 301 301 300 300 298 301 305 305 307 306 309 306 306 306 307 309 311 312 311 310 310 313 313 306 306 308 309 310 309 309 310 310 314 316 317 316 315
307 308 307 307 306 306 305 304 303 303 302 303 303 304 304 302 301 302 303 301 299 299 303 306 307 307 305 309 312 310 308 310 311 311 311 310 309 308 310 313 307 308 308 308 307 308 312 308 309 312 314 314 313 311
306 306 306 305 305 304 303 303 302 302 303 303 303 303 302 301 300 299 299 299 300 301 301 307 308 309 306 310 315 311 315 312 311 311 308 309 307 306 309 307 307 307 308 308 306 305 305 305 306 313 312 312 312 312
305 305 305 304 304 303 303 303 302 303 303 304 304 302 299 298 298 299 304 300 301 299 306 309 310 312 308 308 306 313 312 318 309 312 310 307 308 309 308 306 307 306 306 306 306 304 304 304 304 306 310 311 311 310
303 303 303 303 303 302 302 302 302 303 303 304 301 299 303 301 301 302 303 300 299 300 301 306 307 309 307 307 308 311 312 316 318 312 306 309 310 307 307 306 305 304 304 305 306 305 304 303 302 302 303 304 306 307
302 302 301 301 301 301 301 301 302 303 303 301 300 302 302 302 303 305 310 307 305 306 306 307 308 309 307 310 310 308 311 313 317 314 312 313 312 310 306 304 304 303 303 303 302 301 301 301 300 300 300 300 300 301
301 300 300 300 300 300 300 301 303 303 301 301 301 300 301 304 306 309 310 309 309 311 310 310 311 308 309 306 311 311 313 313 315 310 314 316 310 307 305 304 304 303 302 302 300 300 299 298 298 298 298 297 297 297
300 300 299 298 299 299 301 302 302 303 300 300 301 303 304 303 308 309 310 309 313 312 311 312 315 313 311 310 312 311 313 315 311 315 317 313 308 308 306 304 304 302 301 301 300 299 298 298 297 297 297 296 295 295
300 299 298 298 298 300 300 302 303 300 297 302 303 301 305 305 306 308 308 308 309 309 312 313 314 313 311 312 311 314 313 314 317 317 316 311 308 308 306 304 303 303 302 301 300 299 298 297 296 295 295 295 294 293
299 299 298 298 299 300 301 302 301 297 299 301 303 304 305 304 304 306 305 306 309 310 311 312 311 311 313 313 312 312 315 316 316 316 314 309 307 306 304 303 302 302 302 302 300 300 299 298 296 293 292 292 292 292
299 298 298 298 299 301 301 300 297 297 300 302 302 303 304 305 306 305 306 307 308 311 311 312 313 313 313 313 313 315 314 315 315 313 310 308 307 305 303 303 302 302 302 301 300 299 298 296 295 293 292 291 290 290
298 297 300 300 301 301 301 296 298 299 300 302 302 302 303 303 304 304 304 306 306 311 312 313 313 313 311 313 314 313 316 314 311 310 307 307 307 306 304 303 302 302 302 302 300 298 297 295 293 292 291 290 290 289
297 298 301 301 301 298 297 298 299 300 302 301 302 303 302 303 303 304 303 304 308 310 311 311 311 312 313 313 315 312 311 309 306 307 306 306 306 305 304 303 302 303 303 301 300 297 296 295 294 292 291 290 289 288
297 299 301 301 300 297 298 298 299 303 303 303 302 302 302 303 302 303 304 304 307 307 310 311 311 312 313 312 313 313 311 309 308 304 304 304 304 303 302 302 301 301 301 300 299 298 296 295 294 292 290 290 289 289
296 299 300 301 299 298 300 300 299 302 300 302 301 303 303 303 303 303 304 304 305 307 309 310 311 312 312 313 312 312 311 308 304 304 304 303 302 301 301 301 300 300 299 298 297 296 295 294 292 291 290 290 289 289
295 297 299 299 298 297 299 301 302 300 301 303 302 302 304 302 304 305 305 306 309 309 310 310 311 311 310 309 309 310 307 305 306 306 304 303 301 301 301 300 299 299 299 298 298 296 295 296 293 291 290 290 290 290
297 298 296 296 296 296 299 300 301 300 302 303 303 304 306 305 306 306 306 308 308 309 310 310 310 310 310 309 310 309 307 304 303 301 301 300 301 302 301 300 299 300 299 299 298 298 297 295 293 291 291 290 290 290
298 297 296 297 299 298 300 299 301 301 303 303 303 305 305 305 305 304 308 308 309 308 308 308 308 308 309 308 309 307 304 303 303 302 300 302 301 301 300 299 300 300 300 299 298 298 297 294 292 292 292 291 292 291
298 298 298 299 297 301 300 301 300 302 303 304 303 302 304 307 307 309 309 309 309 308 307 307 307 309 308 309 310 307 307 306 303 302 302 301 302 301 300 300 300 300 301 300 298 297 296 295 293 292 293 292 292 291
297 297 298 299 299 300 300 301 302 302 303 304 304 304 305 309 309 308 309 310 308 309 309 307 308 309 311 311 310 308 305 305 304 303 301 302 302 301 301 301 301 300 300 300 299 298 297 296 294 294 293 293 292 292
300 300 300 300 300 300 300 302 303 303 303 304 304 305 306 308 309 309 310 309 309 309 308 308 309 309 309 310 310 308 306 304 305 305 302 302 302 303 303 303 303 301 300 300 300 299 298 296 295 294 294 293 293 292
299 300 299 299 300 301 301 302 303 304 303 304 304 305 308 309 308 309 307 307 308 307 307 307 307 309 310 308 308 307 306 306 307 307 305 303 303 303 304 304 304 304 303 301 300 300 299 297 296 295 296 296 294 293
298 299 300 299 300 300 302 304 304 305 305 305 304 306 306 308 310 308 307 304 304 305 305 306 306 307 307 308 307 306 306 306 306 305 304 304 305 304 304 305 305 305 305 305 303 300 298 298 297 296 297 297 294 293
298 298 300 300 300 301 302 303 304 304 304 303 305 307 308 308 305 305 304 302 304 305 307 307 306 306 305 306 306 306 306 307 308 309 309 308 307 305 305 306 306 306 305 302 299 298 298 297 297 297 299 298 295 293
298 298 299 301 302 302 303 303 305 305 307 307 307 307 307 306 303 301 301 302 305 305 305 306 306 306 304 304 303 302 304 306 307 307 308 308 308 304 303 303 302 301 301 300 298 297 296 295 296 299 298 298 296 294
298 299 301 302 304 304 304 305 304 305 306 306 306 307 307 305 304 301 301 301 303 303 303 303 305 305 304 304 304 303 302 302 303 304 305 305 302 302 302 302 302 302 301 300 298 297 297 297 299 300 299 300 299 297
299 300 301 303 304 304 304 305 306 306 306 307 307 305 304 305 305 304 300 300 303 302 302 304 304 302 301 302 302 302 303 301 301 301 302 301 300 299 299 299 299 300 301 300 298 297 297 298 299 299 300 300 300 298
300 300 301 302 304 304 306 305 306 306 306 306 307 306 306 306 307 302 299 299 300 302 301 301 300 300 299 299 300 300 300 299 298 298 297 297 297 296 296 296 296 296 297 298 299 300 299 297 298 299 300 300 300 299
Wind_Speed
31 31 29 28 26 26 25 26 26 27 25 22 15 11 11 11 10 9 6 7 5 3 11 7 6 8 7 5 3 6 7 2 4 6 5 4 2 4 5 5 6 4 5 3 4 3 5 19 8 5 5 5 5 10
29 31 30 29 28 27 26 26 26 27 23 21 15 11 10 11 11 7 3 4 8 6 8 19 29 31 27 23 5 2 3 4 3 3 2 3 2 3 4 3 6 2 4 4 4 3 7 10 8 13 8 5 7 10
29 29 30 30 29 28 26 26 26 25 22 19 14 10 10 11 11 9 7 8 4 3 7 5 4 1 7 21 23 4 3 2 1 1 1 2 3 2 3 2 4 4 8 3 5 5 13 9 13 16 9 2 8 12
29 29 30 29 29 28 28 25 24 22 19 17 13 9 10 11 11 10 10 8 5 2 4 5 5 13 8 10 17 31 0 2 1 1 2 1 2 1 1 2 3 3 9 8 4 7 13 4 16 18 8 9 13 11
29 29 29 28 28 26 24 23 20 18 16 15 11 9 10 11 11 13 16 15 13 4 3 7 23 4 7 6 11 18 16 6 3 2 2 1 0 1 2 1 1 5 3 3 3 10 5 9 15 15 7 8 9 16
29 28 27 25 21 20 20 17 14 14 12 12 12 10 11 11 10 7 2 3 11 13 3 4 6 5 7 5 5 10 10 5 3 2 1 1 1 2 2 1 1 7 6 5 5 13 12 12 12 11 5 4 10 9
24 23 21 18 18 18 16 13 13 11 12 9 11 12 11 10 10 5 3 0 10 12 2 4 5 4 5 2 2 3 7 2 3 1 2 0 0 2 1 1 4 8 8 6 8 12 3 7 6 9 7 9 15 17
22 21 19 19 19 16 12 11 13 10 9 11 11 11 11 10 10 9 7 20 14 4 3 3 4 4 3 2 1 1 3 3 2 1 1 1 1 1 2 3 6 7 7 5 7 6 4 6 10 5 8 10 12 13
23 23 22 20 17 14 11 10 12 10 8 9 12 11 6 4 4 2 3 9 18 1 3 3 3 4 4 1 1 2 1 2 1 2 2 2 1 1 2 3 5 6 5 6 4 7 8 11 11 12 6 7 12 11
24 24 22 19 17 15 14 10 9 8 7 10 8 3 2 4 5 8 2 3 3 3 3 4 2 4 3 2 2 2 0 1 2 2 3 1 1 3 1 3 4 5 7 7 2 5 7 9 10 12 12 9 7 10
25 22 19 18 17 14 14 10 8 7 6 3 4 2 1 4 5 3 3 4 4 3 4 4 6 5 2 3 2 1 1 1 2 2 2 1 2 4 6 4 5 6 7 9 11 10 10 8 8 9 11 12 13 12
24 21 19 18 15 14 12 9 7 10 5 5 2 4 2 3 3 4 3 3 5 4 4 4 4 5 2 3 2 2 2 1 2 3 2 2 3 9 9 8 6 6 9 8 10 12 14 14 14 13 12 14 13 13
23 21 20 18 16 13 10 9 11 12 6 4 1 1 2 2 5 6 7 4 4 4 4 4 3 2 3 3 3 2 2 1 2 2 2 0 7 9 10 9 8 10 10 10 10 11 14 15 16 17 16 15 16 16
24 21 20 17 14 11 10 12 15 10 4 3 4 5 6 5 5 6 5 3 2 2 3 2 1 2 1 3 1 3 1 2 2 2 2 4 10 11 10 9 9 9 9 9 10 11 12 14 13 13 14 14 15 14
21 20 19 18 15 12 13 16 15 10 5 4 4 5 8 4 3 3 4 3 3 1 2 2 1 2 2 3 2 0 3 3 3 2 1 6 13 12 12 12 12 11 9 7 9 9 11 12 12 11 11 12 13 12
18 14 22 21 15 16 17 15 11 6 3 3 5 4 4 3 4 3 5 6 2 2 2 1 1 2 4 2 3 5 2 3 1 1 2 10 14 13 13 13 11 12 10 10 9 8 10 10 11 11 10 9 9 9
16 9 12 18 17 20 21 10 6 4 4 4 5 4 5 3 4 2 2 1 1 2 3 2 3 4 1 3 3 3 3 1 1 1 4 11 15 14 13 13 13 12 10 9 10 10 10 11 11 9 10 9 10 9
11 15 12 20 24 21 8 5 4 4 6 6 4 4 4 4 4 4 3 3 3 2 3 4 3 4 4 3 2 1 2 1 1 0 5 10 11 16 16 14 13 13 11 10 9 10 11 10 8 8 10 9 10 12
17 13 15 25 24 8 5 6 4 3 7 3 3 3 3 4 5 9 7 5 4 1 2 3 5 3 4 3 4 2 2 3 2 3 5 12 15 16 15 13 13 12 13 12 10 8 7 6 8 10 10 9 9 9
21 12 16 25 17 5 4 3 6 3 3 2 3 3 3 4 3 5 7 6 5 3 5 5 5 3 3 3 3 2 2 4 6 6 7 7 14 15 15 15 13 14 12 11 9 11 9 8 7 8 9 10 10 9
16 16 10 25 4 2 2 3 3 2 3 3 1 3 3 2 4 5 5 6 5 4 6 5 6 6 6 5 3 2 4 9 7 6 11 10 14 15 15 13 15 14 13 11 10 9 7 6 9 10 10 8 7 8
8 13 4 6 3 3 3 4 2 1 2 2 2 3 4 3 3 4 3 5 5 7 6 5 6 5 7 7 6 9 7 12 8 8 13 19 10 9 13 15 15 13 12 13 12 11 9 8 10 10 10 10 9 7
16 8 3 3 3 5 1 5 2 3 3 2 2 3 3 3 3 3 3 4 4 6 9 9 12 10 8 6 6 9 12 14 7 9 13 17 16 16 15 15 15 14 11 11 10 10 10 11 12 11 10 11 9 7
6 5 5 5 4 4 3 3 2 3 3 3 3 3 4 3 4 3 3 3 3 3 5 7 6 4 4 7 5 5 10 13 10 10 15 17 12 14 16 16 15 14 11 10 12 11 12 13 14 13 12 11 10 9
3 3 4 4 2 4 4 4 4 4 4 5 3 4 3 3 3 2 3 3 2 4 4 5 6 6 6 5 5 9 11 16 13 7 13 16 16 13 11 11 12 11 11 11 12 13 13 13 15 14 14 13 13 11
4 3 6 7 5 5 6 3 6 6 4 4 5 3 2 3 3 3 2 1 1 3 5 7 7 6 4 5 7 6 12 12 12 10 14 17 17 16 12 8 8 12 15 15 13 14 15 16 17 17 16 14 16 13
3 5 3 2 2 2 3 3 2 2 4 4 2 2 3 3 3 1 3 1 1 1 5 7 8 6 6 8 8 8 13 13 10 9 14 17 13 12 14 15 14 11 10 16 17 16 16 18 19 20 17 14 16 17
2 4 5 6 3 2 3 3 5 6 4 3 2 3 2 2 2 3 2 5 4 6 8 6 4 3 6 9 11 17 13 10 10 11 14 9 6 8 11 11 10 11 12 12 15 17 15 16 19 20 18 15 17 17
3 3 4 5 5 4 5 3 3 2 1 1 1 2 1 2 2 2 4 5 2 7 9 9 9 10 12 12 11 10 14 14 16 13 11 7 5 4 6 7 8 9 7 7 9 9 11 15 17 20 16 15 16 17
4 5 4 6 5 7 4 5 2 2 2 0 1 1 1 1 3 4 3 1 6 5 7 10 12 13 12 11 11 11 9 7 5 7 4 4 5 9 8 7 7 8 8 8 10 9 9 12 18 16 12 12 14 15
4 6 3 4 4 4 6 3 2 2 2 1 0 1 1 1 1 6 4 2 5 10 10 10 10 11 14 11 11 9 5 5 7 9 10 13 11 10 8 6 5 4 7 8 9 11 15 16 18 16 13 12 14 16
5 6 4 5 3 2 3 4 3 3 4 3 1 2 2 1 2 0 5 2 6 8 7 10 12 8 8 10 8 8 10 14 14 14 14 15 13 11 9 7 5 4 3 5 9 11 15 17 17 20 19 17 15 17
3 4 4 3 3 3 3 3 1 1 2 2 3 4 3 4 3 1 2 3 3 8 14 13 14 16 14 15 19 22 21 21 19 17 15 13 10 8 6 4 2 1 0 1 3 6 12 16 17 17 18 18 20 21
Wind_Direction
288 290 290 293 297 300 305 308 308 313 316 317 313 308 313 307 309 316 286 243 209 253 282 251 222 254 270 253 271 328 328 26 327 21 6 351 321 6 311 342 336 8 336 343 330 353 2 359 354 30 348 307 167 152
291 286 286 287 289 291 295 300 301 307 311 312 312 297 306 299 300 296 283 219 234 236 272 288 271 263 248 247 281 252 295 287 345 330 342 323 319 337 317 321 347 38 18 296 333 355 327 347 343 316 303 255 143 128
296 297 289 283 284 287 287 289 293 300 303 308 308 288 302 290 287 277 271 254 250 281 280 282 249 290 229 229 217 235 197 271 329 34 299 309 319 314 344 332 282 357 17 324 321 4 339 340 354 351 345 320 123 126
291 294 295 291 283 283 282 281 288 292 298 304 299 281 299 287 285 279 259 248 185 282 286 281 311 302 287 231 211 214 246 83 22 276 267 274 296 87 301 325 333 333 318 326 304 350 341 356 349 339 7 91 108 119
295 292 295 293 286 279 273 272 278 284 294 302 299 280 298 287 285 290 273 262 237 226 289 292 310 286 306 255 218 206 220 252 274 266 250 265 279 315 284 222 50 336 347 345 299 326 319 296 323 328 6 106 114 124
297 296 294 290 283 276 269 271 273 291 302 311 306 290 279 279 292 310 272 240 204 198 277 305 323 278 307 10 179 190 200 206 235 241 247 210 78 301 297 274 345 303 303 319 298 309 289 277 296 347 54 111 108 98
295 298 294 287 277 274 272 270 271 291 298 303 298 283 267 276 272 227 296 98 170 184 250 291 295 271 299 270 151 128 163 190 239 176 210 244 99 340 297 276 333 317 327 346 333 328 297 1 320 322 98 106 109 98
292 295 291 285 281 276 266 267 272 276 282 288 287 273 272 276 272 273 275 214 173 224 240 272 280 291 0 286 210 151 172 189 183 135 152 212 124 269 272 319 334 344 339 25 356 10 348 342 6 57 101 113 116 118
289 290 289 285 280 267 262 269 266 272 270 280 275 277 270 197 212 277 220 174 184 287 275 228 280 296 341 293 269 175 219 218 138 214 140 221 163 248 278 315 349 351 338 320 27 23 34 44 29 27 66 99 113 116
290 289 284 279 269 262 260 254 261 262 274 264 281 225 215 217 153 150 232 134 172 237 232 248 225 264 310 318 287 264 206 220 241 113 147 203 179 113 155 66 39 17 9 3 5 14 32 45 48 40 39 43 75 111
289 284 276 269 268 256 247 247 239 248 235 220 218 240 178 188 169 207 230 204 171 233 218 227 213 250 198 258 302 255 309 202 266 108 270 195 209 158 146 102 80 67 69 66 71 62 56 68 69 67 54 51 55 77
284 273 268 263 254 244 242 236 213 203 217 203 215 283 278 196 214 232 211 206 206 240 196 202 213 206 243 227 267 197 280 220 275 142 258 257 130 151 146 138 115 96 87 77 76 75 67 60 67 72 69 65 62 71
277 265 262 255 242 234 230 219 209 212 202 240 146 204 213 167 219 221 198 208 218 198 200 196 204 218 185 223 253 263 252 248 138 232 264 61 142 153 145 145 131 108 104 94 87 86 82 71 59 64 70 70 73 72
271 257 255 243 229 223 218 210 203 189 193 208 177 230 203 186 234 208 212 208 226 221 179 196 237 233 173 217 235 255 67 198 241 234 246 154 166 153 146 145 142 136 130 118 108 99 91 85 74 63 60 71 77 66
258 246 251 234 220 206 197 200 192 177 165 220 200 234 224 231 246 266 254 271 237 252 186 157 168 258 213 248 209 157 213 241 236 235 153 151 161 153 146 147 140 143 143 137 132 123 115 106 96 82 72 79 85 88
241 247 240 231 202 192 188 176 170 197 224 221 229 239 227 265 247 215 239 253 215 167 154 228 99 228 231 248 203 217 229 229 202 222 111 152 160 160 159 159 158 157 152 141 131 125 122 114 109 107 96 85 85 91
220 220 227 209 187 183 178 145 163 210 229 217 233 228 252 283 267 252 217 238 139 194 198 126 225 214 283 244 234 200 221 248 324 190 160 167 165 165 168 168 171 173 170 159 141 133 122 120 115 103 92 89 92 97
212 222 212 177 172 148 158 168 197 226 228 228 227 215 205 221 244 243 228 202 189 205 169 218 166 200 217 224 230 304 280 330 5 146 162 163 163 166 168 172 178 183 177 165 153 139 137 135 118 107 117 119 112 119
213 213 189 178 168 138 165 195 213 248 225 219 237 223 234 245 228 247 247 224 213 172 263 206 229 207 219 213 236 218 224 217 171 141 153 164 161 160 163 163 158 156 157 156 155 151 141 131 127 133 136 139 135 138
208 203 200 192 169 129 176 217 196 233 239 237 231 218 225 232 238 229 232 207 189 190 205 225 221 210 219 235 199 245 207 170 154 144 154 161 165 162 163 160 155 150 145 142 141 141 137 126 128 133 138 142 144 148
216 229 208 177 152 128 249 214 185 208 242 246 239 213 244 221 234 227 222 170 189 221 218 212 223 235 248 255 250 220 171 166 186 181 171 166 174 170 164 161 152 155 157 160 161 160 160 147 151 151 148 145 141 144
191 184 125 121 115 206 239 226 243 307 251 261 245 218 249 239 228 210 157 190 220 214 205 208 223 219 244 242 230 206 191 151 159 129 148 148 160 169 170 170 165 169 175 176 172 169 169 161 157 158 159 157 152 155
144 142 103 108 179 199 209 166 193 224 240 222 217 237 225 228 215 148 231 224 231 212 212 217 227 219 227 228 176 158 157 142 166 169 166 168 164 167 169 175 176 175 180 182 177 169 169 170 166 162 162 164 163 160
119 141 162 175 191 163 167 176 209 244 240 231 230 245 236 233 157 216 249 245 215 174 192 199 184 164 146 157 158 155 177 185 166 161 171 161 165 176 181 181 186 193 193 180 176 177 175 176 172 170 171 173 176 176
147 174 176 159 160 160 181 193 200 211 242 204 229 240 244 205 180 247 245 259 211 197 180 172 182 190 173 154 154 177 174 175 169 158 175 179 169 162 173 184 191 196 189 179 185 189 187 183 183 181 179 181 180 180
211 164 182 180 155 197 189 210 202 210 201 209 228 242 235 220 213 240 229 290 229 188 175 173 165 166 170 166 159 172 177 176 165 164 171 176 176 173 175 181 189 208 211 211 207 198 195 192 191 187 187 188 186 179
174 182 192 252 192 161 217 246 239 209 205 215 229 214 208 223 233 344 330 300 293 186 161 160 171 177 169 159 160 155 157 164 165 170 174 178 181 186 188 191 203 211 207 213 213 209 204 198 195 191 190 190 191 190
222 176 177 175 188 215 269 246 194 198 204 231 235 221 224 209 37 348 337 356 345 117 114 112 87 103 137 146 149 144 138 137 130 124 124 133 167 199 215 222 227 231 245 237 227 221 200 198 194 189 188 191 189 190
204 186 164 166 191 205 218 236 233 230 191 172 294 306 20 70 106 337 322 332 208 151 126 111 97 107 102 104 112 125 136 149 150 153 154 147 151 158 181 192 211 208 207 197 194 189 192 185 183 184 190 193 189 185
203 170 192 179 194 207 223 203 228 209 228 66 102 191 166 72 1 0 336 247 187 178 136 133 140 139 131 125 117 100 117 118 116 129 139 156 147 144 139 133 140 146 147 152 154 163 170 177 175 172 170 172 178 183
150 183 199 193 226 218 223 214 231 248 131 104 206 287 100 97 331 24 23 11 162 154 135 125 125 143 143 145 140 134 117 117 133 140 143 141 137 136 134 138 143 162 179 180 178 171 172 178 187 191 192 187 192 196
177 188 203 199 221 195 169 189 200 209 193 182 158 106 138 136 209 283 353 61 153 150 155 147 135 123 124 128 126 125 142 131 125 126 130 128 124 121 118 111 105 111 127 192 206 199 196 197 198 199 211 214 211 210
187 198 208 240 213 203 193 159 49 31 234 217 203 187 184 175 187 101 356 63 129 156 145 135 134 132 132 130 128 127 125 122 120 119 118 114 111 104 91 73 55 56 146 194 197 214 218 218 218 216 217 223 220 222